GW2742 Weather Reports


time (UTC)temp
C
wind
direction
speed
KPH
gust
KPH
rain 1hr
cm
rain 24hr
cm
rain mn
cm
humidity
%
barometer
mb
20260508225027 21 323 1.6 8.0 0.00 0.23 0.05 37 1010.4
20260508224544 21 26 0.0 9.7 0.00 0.23 0.05 35 1010.6
20260508224023 21 154 3.2 11.3 0.00 0.23 0.05 36 1010.6
20260508223526 21 190 3.2 14.5 0.00 0.23 0.05 37 1010.8
20260508223038 21 180 4.8 19.3 0.00 0.23 0.05 38 1010.8
20260508222523 21 137 6.4 19.3 0.00 0.23 0.05 36 1010.9
20260508222023 21 208 3.2 19.3 0.00 0.23 0.05 37 1011.0
20260508221537 21 330 6.4 11.3 0.00 0.23 0.05 38 1011.0
20260508221025 21 1 3.2 11.3 0.00 0.23 0.05 36 1011.1
20260508220526 21 108 3.2 11.3 0.00 0.23 0.05 38 1011.2
20260508220037 21 37 1.6 6.4 0.00 0.23 0.05 40 1011.2
20260508215525 20 212 1.6 11.3 0.00 0.23 0.05 37 1011.3
20260508215027 20 162 3.2 11.3 0.00 0.23 0.05 37 1011.4
20260508214542 20 103 1.6 14.5 0.00 0.23 0.05 38 1011.5
20260508214023 20 151 4.8 16.1 0.00 0.23 0.05 37 1011.5
20260508213523 20 131 8.0 16.1 0.00 0.23 0.05 39 1011.6
20260508213042 20 125 6.4 14.5 0.00 0.23 0.05 39 1011.6
20260508212526 21 115 4.8 14.5 0.00 0.23 0.05 37 1011.6
20260508212023 20 247 3.2 16.1 0.00 0.23 0.05 40 1011.8
20260508211543 20 219 6.4 16.1 0.00 0.23 0.05 39 1011.8
20260508211023 20 179 8.0 14.5 0.00 0.23 0.05 38 1011.9
20260508210524 20 109 1.6 9.7 0.00 0.23 0.05 40 1011.9
20260508210047 20 158 4.8 9.7 0.00 0.23 0.05 44 1012.0
20260508205523 20 0 3.2 14.5 0.00 0.23 0.05 38 1011.9
20260508205025 20 85 4.8 14.5 0.00 0.23 0.05 39 1012.1
20260508204545 20 160 8.0 14.5 0.00 0.23 0.05 40 1012.2
20260508204023 19 152 8.0 12.9 0.00 0.23 0.05 43 1012.2
20260508203524 19 66 3.2 16.1 0.00 0.23 0.05 41 1012.2
20260508203049 19 94 6.4 16.1 0.00 0.23 0.05 43 1012.3
20260508202524 19 97 6.4 14.5 0.00 0.23 0.05 43 1012.4
20260508202026 18 34 6.4 12.9 0.00 0.23 0.05 42 1012.4
20260508201537 18 71 4.8 16.1 0.00 0.23 0.05 42 1012.4
20260508201026 18 17 9.7 16.1 0.00 0.23 0.05 41 1012.4
20260508200525 18 0 4.8 11.3 0.00 0.23 0.05 41 1012.5
20260508200041 18 92 4.8 11.3 0.00 0.23 0.05 41 1012.5
20260508195526 18 102 3.2 17.7 0.00 0.23 0.05 40 1012.7
20260508195025 18 120 6.4 17.7 0.00 0.23 0.05 43 1012.8
20260508194537 18 112 6.4 17.7 0.00 0.23 0.05 47 1012.9
20260508194024 18 108 8.0 17.7 0.00 0.23 0.05 44 1013.0
20260508193522 18 25 3.2 12.9 0.00 0.23 0.05 45 1013.0
20260508193042 18 126 6.4 12.9 0.00 0.23 0.05 48 1013.1
20260508192525 18 0 3.2 14.5 0.00 0.23 0.05 44 1013.1
20260508192025 18 222 6.4 17.7 0.00 0.23 0.05 45 1013.3
20260508191539 18 188 1.6 17.7 0.00 0.23 0.05 47 1013.4
20260508191025 18 80 6.4 17.7 0.00 0.23 0.05 46 1013.5
20260508190524 18 98 4.8 14.5 0.00 0.23 0.05 47 1013.6
20260508190047 17 99 3.2 14.5 0.00 0.23 0.05 49 1013.7
20260508185529 17 116 3.2 12.9 0.00 0.23 0.05 48 1013.9
20260508185023 17 233 4.8 16.1 0.00 0.23 0.05 48 1013.9
20260508184548 17 113 8.0 16.1 0.00 0.23 0.05 51 1014.0
20260508184025 17 159 9.7 16.1 0.00 0.23 0.05 52 1014.1
20260508183524 17 68 8.0 16.1 0.00 0.23 0.05 52 1014.1
20260508183041 17 90 8.0 14.5 0.00 0.23 0.05 51 1014.3
20260508182525 16 68 4.8 20.9 0.00 0.23 0.05 51 1014.2
20260508182024 16 79 9.7 20.9 0.00 0.23 0.05 53 1014.4
20260508181538 17 94 8.0 12.9 0.00 0.23 0.05 54 1014.6
20260508181026 16 65 4.8 19.3 0.00 0.23 0.05 56 1014.6
20260508180525 16 160 6.4 19.3 0.00 0.23 0.05 58 1014.7
20260508180037 16 99 6.4 14.5 0.00 0.23 0.05 59 1014.8
20260508175525 16 60 6.4 14.5 0.00 0.23 0.05 59 1014.9
20260508175025 16 127 4.8 14.5 0.00 0.23 0.05 58 1014.9
20260508174556 16 106 8.0 14.5 0.00 0.23 0.05 60 1014.9
20260508174031 16 79 6.4 22.5 0.00 0.23 0.05 60 1015.0
20260508173525 15 139 8.0 22.5 0.00 0.23 0.05 60 1015.0
20260508173040 15 124 6.4 16.1 0.00 0.23 0.05 64 1015.0
20260508172525 15 179 4.8 16.1 0.00 0.23 0.05 60 1015.2
20260508172025 15 216 8.0 19.3 0.00 0.23 0.05 63 1015.4
20260508171536 15 133 6.4 19.3 0.00 0.23 0.05 64 1015.3
20260508171025 15 107 4.8 19.3 0.00 0.23 0.05 64 1015.3
20260508170524 15 151 8.0 19.3 0.00 0.23 0.05 65 1015.5
20260508170038 15 107 6.4 16.1 0.00 0.23 0.05 66 1015.5
20260508165524 15 104 6.4 16.1 0.00 0.23 0.05 65 1015.6
20260508165024 15 126 6.4 16.1 0.00 0.23 0.05 68 1015.4
20260508164544 14 94 8.0 17.7 0.00 0.23 0.05 68 1015.7
20260508164026 14 179 8.0 17.7 0.00 0.23 0.05 68 1015.7
20260508163527 13 167 8.0 17.7 0.00 0.23 0.05 71 1015.6
20260508163104 13 131 8.0 17.7 0.00 0.23 0.05 70 1015.7
20260508162526 13 107 8.0 16.1 0.00 0.23 0.05 72 1015.7
20260508162024 13 158 8.0 16.1 0.00 0.23 0.05 71 1015.8
20260508161540 13 141 6.4 16.1 0.00 0.23 0.05 74 1015.8
20260508161025 13 131 8.0 16.1 0.00 0.23 0.05 74 1016.0
20260508160528 13 81 8.0 16.1 0.00 0.23 0.05 75 1016.0
20260508160037 13 78 8.0 14.5 0.00 0.23 0.05 76 1016.0
20260508155525 13 146 6.4 16.1 0.00 0.23 0.05 79 1016.1
20260508155025 12 160 6.4 16.1 0.00 0.23 0.05 80 1016.2
20260508154537 12 158 8.0 16.1 0.00 0.23 0.05 79 1016.2
20260508154025 12 167 8.0 19.3 0.00 0.23 0.05 79 1016.3
20260508153525 12 150 9.7 19.3 0.00 0.23 0.05 80 1016.3
20260508153037 11 125 6.4 16.1 0.00 0.23 0.05 82 1016.4
20260508152524 11 127 8.0 16.1 0.00 0.23 0.05 83 1016.4
20260508152025 10 131 4.8 16.1 0.00 0.23 0.05 86 1016.4
20260508151541 10 117 6.4 16.1 0.00 0.23 0.05 86 1016.4
20260508151033 10 148 8.0 16.1 0.00 0.23 0.05 86 1016.4
20260508150525 10 148 6.4 14.5 0.00 0.23 0.05 88 1016.5
20260508150040 10 113 6.4 12.9 0.00 0.23 0.05 89 1016.5
20260508145524 9 244 1.6 6.4 0.00 0.23 0.05 90 1016.6
20260508145025 9 21 1.6 8.0 0.00 0.23 0.05 90 1016.7
20260508144540 9 0 0.0 8.0 0.00 0.23 0.05 91 1016.7
20260508144025 8 103 3.2 8.0 0.00 0.23 0.05 91 1016.6
20260508143526 8 105 3.2 8.0 0.00 0.23 0.05 91 1016.7
20260508143037 8 78 3.2 8.0 0.00 0.23 0.05 91 1016.8
20260508142524 8 66 3.2 8.0 0.00 0.23 0.05 92 1016.7
20260508142025 8 106 3.2 8.0 0.00 0.23 0.05 92 1016.7
20260508141537 8 45 3.2 8.0 0.00 0.23 0.05 93 1016.8
20260508141022 8 0 1.6 8.0 0.00 0.23 0.05 93 1016.9
20260508140525 7 14 1.6 8.0 0.00 0.23 0.05 94 1016.7
20260508140036 7 20 0.0 4.8 0.00 0.23 0.05 94 1016.7
20260508135525 7 20 1.6 4.8 0.00 0.28 0.05 94 1016.7
20260508135024 7 25 0.0 4.8 0.00 0.28 0.05 94 1016.6
20260508134544 7 0 0.0 3.2 0.00 0.28 0.05 94 1016.7
20260508134023 6 0 0.0 3.2 0.00 0.28 0.05 94 1016.6
20260508133527 6 0 0.0 3.2 0.00 0.28 0.05 94 1016.6
20260508133045 6 0 0.0 3.2 0.00 0.28 0.05 94 1016.6
20260508132523 6 0 0.0 3.2 0.00 0.28 0.05 94 1016.7
20260508132023 6 0 0.0 4.8 0.00 0.28 0.05 94 1016.7
20260508131545 6 0 0.0 4.8 0.03 0.28 0.05 94 1016.6
20260508131026 6 55 1.6 4.8 0.03 0.28 0.05 94 1016.4
20260508130527 6 0 0.0 1.6 0.03 0.28 0.05 94 1016.4
20260508130047 5 0 0.0 1.6 0.03 0.28 0.05 94 1016.3
20260508125523 5 0 0.0 3.2 0.03 0.28 0.05 94 1016.4
20260508125023 5 0 0.0 4.8 0.03 0.28 0.05 94 1016.4
20260508124536 5 27 1.6 4.8 0.03 0.28 0.05 94 1016.2
20260508124024 4 184 0.0 3.2 0.03 0.28 0.05 94 1016.1
20260508123523 3 0 0.0 0.0 0.03 0.28 0.05 94 1016.1
20260508123041 3 0 0.0 0.0 0.03 0.28 0.05 94 1015.9
20260508122526 3 0 0.0 0.0 0.03 0.28 0.05 93 1016.0
20260508122029 3 0 0.0 0.0 0.03 0.28 0.05 93 1015.8
20260508121539 3 0 0.0 0.0 0.00 0.25 0.03 94 1015.8
20260508121023 3 0 0.0 0.0 0.00 0.25 0.03 94 1015.7
20260508120525 3 0 0.0 0.0 0.00 0.25 0.03 94 1015.8
20260508120036 3 0 0.0 0.0 0.00 0.25 0.03 94 1015.8
20260508115528 3 0 0.0 0.0 0.00 0.28 0.03 93 1015.8
20260508115025 3 0 0.0 0.0 0.00 0.28 0.03 93 1015.8
20260508114537 3 0 0.0 0.0 0.00 0.28 0.03 93 1015.7
20260508114025 3 0 0.0 0.0 0.00 0.28 0.03 93 1015.7
20260508113523 3 0 0.0 0.0 0.00 0.28 0.03 93 1015.7
20260508113047 3 0 0.0 0.0 0.00 0.28 0.03 93 1015.6
20260508112524 3 0 0.0 0.0 0.00 0.28 0.03 94 1015.7
20260508112026 3 0 0.0 0.0 0.00 0.28 0.03 93 1015.8
20260508111541 3 0 0.0 0.0 0.00 0.28 0.03 93 1015.7
20260508111023 3 0 0.0 0.0 0.00 0.28 0.03 94 1015.7
20260508110525 3 0 0.0 0.0 0.00 0.28 0.03 93 1015.6
20260508110050 3 0 0.0 0.0 0.00 0.28 0.03 93 1015.5
20260508105523 2 0 0.0 0.0 0.00 0.36 0.03 93 1015.6
20260508105023 2 0 0.0 0.0 0.00 0.36 0.03 93 1015.5
20260508104537 3 0 0.0 0.0 0.00 0.36 0.03 92 1015.5
20260508104025 3 0 0.0 0.0 0.00 0.36 0.03 92 1015.5
20260508103526 3 0 0.0 0.0 0.00 0.36 0.03 93 1015.6
20260508103040 3 0 0.0 0.0 0.00 0.36 0.03 93 1015.4
20260508102523 3 0 0.0 0.0 0.00 0.36 0.03 93 1015.6
20260508102022 3 0 0.0 3.2 0.00 0.36 0.03 93 1015.5
20260508101547 3 0 0.0 4.8 0.00 0.36 0.03 93 1015.5
20260508101023 3 184 1.6 6.4 0.00 0.36 0.03 92 1015.5
20260508100526 3 184 3.2 6.4 0.00 0.36 0.03 92 1015.4
20260508100043 4 0 0.0 0.0 0.00 0.36 0.03 93 1015.4
20260508095525 4 0 0.0 0.0 0.00 0.36 0.03 93 1015.3
20260508095022 4 0 0.0 0.0 0.00 0.36 0.03 92 1015.4
20260508094550 4 0 0.0 0.0 0.00 0.36 0.03 92 1015.2
20260508094023 4 0 0.0 0.0 0.00 0.36 0.03 93 1015.2
20260508093526 4 0 0.0 0.0 0.00 0.36 0.03 93 1015.1
20260508093051 4 0 0.0 0.0 0.00 0.36 0.03 93 1015.2
20260508092523 4 0 0.0 0.0 0.00 0.36 0.03 93 1015.3
20260508092023 4 0 0.0 0.0 0.00 0.36 0.03 93 1015.2
20260508091540 4 0 0.0 0.0 0.00 0.36 0.03 92 1015.3
20260508091023 4 0 0.0 0.0 0.00 0.36 0.03 92 1015.3
20260508090523 5 0 0.0 0.0 0.00 0.36 0.03 92 1015.2
20260508090056 5 0 0.0 0.0 0.00 0.36 0.03 92 1015.2
20260508085522 5 0 0.0 0.0 0.00 0.36 0.03 92 1015.2
20260508085027 5 0 0.0 0.0 0.00 0.36 0.03 92 1015.2
20260508084536 5 0 0.0 0.0 0.00 0.36 0.03 92 1015.4
20260508084027 5 0 0.0 0.0 0.00 0.36 0.03 92 1015.2
20260508083527 5 0 0.0 0.0 0.00 0.36 0.03 92 1015.2
20260508083041 6 0 0.0 0.0 0.00 0.36 0.03 92 1015.3
20260508082527 6 0 0.0 0.0 0.00 0.36 0.03 92 1015.3
20260508082026 6 0 0.0 0.0 0.00 0.36 0.03 92 1015.2
20260508081541 6 0 0.0 0.0 0.00 0.36 0.03 92 1015.2
20260508081026 6 0 0.0 0.0 0.00 0.36 0.03 92 1015.3
20260508080527 6 0 0.0 0.0 0.00 0.36 0.03 92 1015.3
20260508080039 6 0 0.0 1.6 0.00 0.36 0.03 92 1015.2
20260508075527 6 0 0.0 1.6 0.00 0.36 0.03 92 1015.3
20260508075029 6 0 0.0 1.6 0.00 0.36 0.03 93 1015.1
20260508074541 6 0 0.0 3.2 0.03 0.36 0.03 92 1015.2
20260508074027 6 0 0.0 3.2 0.03 0.36 0.03 92 1015.4
20260508073526 6 213 0.0 3.2 0.03 0.36 0.03 92 1015.2
20260508073037 6 0 0.0 0.0 0.03 0.36 0.03 92 1015.2
20260508072527 6 0 0.0 0.0 0.03 0.36 0.03 92 1015.3
20260508072027 6 0 0.0 0.0 0.03 0.36 0.03 91 1015.2
20260508071539 7 0 0.0 0.0 0.03 0.36 0.03 91 1015.4
20260508071027 7 0 0.0 0.0 0.03 0.36 0.03 91 1015.3
20260508070527 7 0 0.0 0.0 0.03 0.36 0.03 91 1015.3
20260508070041 7 0 0.0 0.0 0.03 0.36 0.03 91 1015.3
20260508065528 7 0 0.0 0.0 0.03 0.36 0.03 91 1015.4
20260508065026 7 0 0.0 0.0 0.00 0.33 0.00 91 1015.3
20260508064536 7 0 0.0 4.8 0.00 0.33 0.00 91 1015.3
20260508064027 7 0 0.0 4.8 0.00 0.33 0.00 91 1015.2
20260508063531 7 213 1.6 4.8 0.00 0.33 0.00 91 1015.4
20260508063043 7 186 0.0 3.2 0.00 0.33 0.00 91 1015.3
20260508062527 7 0 0.0 0.0 0.00 0.33 0.00 91 1015.2
20260508062026 7 0 0.0 1.6 0.00 0.33 0.00 91 1015.2
20260508061541 7 0 0.0 1.6 0.00 0.33 0.00 91 1015.2
20260508061028 7 0 0.0 3.2 0.00 0.33 0.00 91 1015.4
20260508060526 8 0 0.0 4.8 0.00 0.33 0.00 91 1015.4
20260508060043 8 0 0.0 4.8 0.00 0.33 0.00 91 1015.3
20260508055526 8 179 1.6 4.8 0.00 0.33 0.33 90 1015.3
20260508055031 8 0 0.0 1.6 0.00 0.33 0.33 90 1015.4
20260508054555 8 0 0.0 0.0 0.00 0.33 0.33 90 1015.2
20260508054030 8 0 0.0 4.8 0.00 0.33 0.33 90 1015.2
20260508053526 8 0 0.0 4.8 0.00 0.33 0.33 90 1015.2
20260508053040 8 179 1.6 4.8 0.00 0.33 0.33 90 1015.2
20260508052527 8 0 0.0 4.8 0.00 0.33 0.33 89 1015.2
20260508052027 8 143 0.0 3.2 0.00 0.33 0.33 89 1015.0
20260508051537 8 0 0.0 3.2 0.00 0.33 0.33 89 1015.1
20260508051027 8 0 0.0 3.2 0.00 0.33 0.33 88 1014.9
20260508050527 8 0 0.0 4.8 0.00 0.33 0.33 89 1014.9
20260508050047 8 234 1.6 4.8 0.00 0.33 0.33 89 1014.9
20260508045526 9 261 1.6 4.8 0.00 0.33 0.33 89 1015.0
20260508045026 9 262 1.6 4.8 0.00 0.33 0.33 89 1015.0
20260508044543 9 243 0.0 3.2 0.00 0.33 0.33 89 1015.2
20260508044026 9 0 0.0 0.0 0.00 0.33 0.33 89 1015.0
20260508043526 9 0 0.0 3.2 0.00 0.33 0.33 89 1015.1
20260508043038 10 0 0.0 4.8 0.00 0.33 0.33 89 1015.1
20260508042527 10 243 1.6 6.4 0.00 0.33 0.33 89 1015.2
20260508042027 10 237 1.6 8.0 0.00 0.33 0.33 89 1015.2
20260508041548 10 234 1.6 8.0 0.00 0.33 0.33 89 1015.2
20260508041028 10 235 1.6 11.3 0.00 0.33 0.33 89 1015.2
20260508040528 10 220 3.2 11.3 0.03 0.33 0.33 89 1015.1
20260508040039 10 197 6.4 11.3 0.03 0.33 0.33 88 1014.8
20260508035527 10 212 3.2 4.8 0.03 0.33 0.33 89 1014.9
20260508035028 10 215 0.0 4.8 0.03 0.33 0.33 89 1015.0
20260508034540 10 0 0.0 3.2 0.03 0.33 0.33 89 1015.1
20260508034028 10 0 0.0 3.2 0.03 0.33 0.33 89 1015.2
20260508033527 10 0 0.0 0.0 0.03 0.33 0.33 88 1015.3
20260508033039 10 0 0.0 0.0 0.03 0.33 0.33 87 1015.2
20260508032529 10 0 0.0 1.6 0.03 0.33 0.33 87 1015.1
20260508032027 10 0 0.0 4.8 0.03 0.33 0.33 87 1014.9
20260508031553 10 0 0.0 4.8 0.03 0.33 0.33 87 1014.6
20260508031027 10 184 1.6 4.8 0.03 0.33 0.33 87 1014.9
20260508030527 10 252 1.6 6.4 0.00 0.30 0.30 86 1015.1
20260508030046 10 0 0.0 6.4 0.00 0.30 0.30 86 1015.0
20260508025526 10 247 3.2 6.4 0.00 0.30 0.30 86 1014.9
20260508025026 10 245 0.0 3.2 0.00 0.30 0.30 86 1014.7
20260508024536 10 0 0.0 0.0 0.00 0.30 0.30 86 1014.5
20260508024027 10 0 0.0 0.0 0.00 0.30 0.30 85 1014.5
20260508023527 10 0 0.0 3.2 0.00 0.30 0.30 84 1014.2
20260508023042 10 0 0.0 4.8 0.00 0.30 0.30 84 1014.3
20260508022526 10 330 0.0 8.0 0.00 0.30 0.30 84 1014.2
20260508022026 10 345 3.2 8.0 0.00 0.30 0.30 84 1014.0
20260508021542 10 39 3.2 6.4 0.00 0.30 0.30 84 1013.7
20260508021027 10 39 3.2 8.0 0.00 0.30 0.30 84 1013.5
20260508020526 10 0 1.6 8.0 0.00 0.30 0.30 84 1014.1
20260508020037 10 250 1.6 6.4 0.03 0.30 0.30 84 1014.0
20260508015527 10 233 0.0 3.2 0.03 0.30 0.30 84 1013.9
20260508015027 10 245 0.0 3.2 0.05 0.30 0.30 83 1013.8
20260508014537 10 0 0.0 1.6 0.08 0.30 0.30 83 1013.9
20260508014026 10 0 0.0 1.6 0.08 0.30 0.30 83 1013.8
20260508013526 11 0 0.0 3.2 0.10 0.30 0.30 83 1013.7
20260508013043 11 0 0.0 4.8 0.13 0.30 0.30 82 1013.5
20260508012526 11 335 1.6 4.8 0.13 0.30 0.30 81 1013.3
20260508012027 11 353 1.6 8.0 0.15 0.30 0.30 80 1013.2
20260508011536 11 348 1.6 8.0 0.15 0.30 0.30 80 1013.0
20260508011026 11 335 4.8 11.3 0.15 0.30 0.30 79 1012.9
20260508010526 11 349 3.2 11.3 0.13 0.28 0.28 78 1012.6
20260508010044 11 7 3.2 27.4 0.13 0.28 0.28 78 1012.7
20260508005526 11 359 9.7 43.5 0.10 0.25 0.25 74 1012.8
20260508005026 12 347 12.9 43.5 0.10 0.25 0.25 68 1012.2
20260508004539 10 359 14.5 29.0 0.08 0.23 0.23 78 1011.6
20260508004025 10 49 6.4 22.5 0.08 0.23 0.23 82 1013.4
20260508003531 10 340 11.3 24.1 0.05 0.20 0.20 80 1014.0
20260508003049 11 359 8.0 24.1 0.03 0.18 0.18 77 1014.1
20260508002529 12 321 11.3 24.1 0.03 0.18 0.18 73 1014.0
20260508002026 13 285 3.2 8.0 0.00 0.15 0.15 70 1013.5
20260508001537 13 249 3.2 12.9 0.00 0.15 0.15 68 1012.9
20260508001026 14 276 4.8 12.9 0.00 0.15 0.15 67 1012.8
20260508000526 14 230 4.8 12.9 0.00 0.15 0.15 65 1012.3
20260508000040 14 250 3.2 9.7 0.00 0.15 0.15 66 1012.1
20260507235527 14 237 3.2 12.9 0.00 0.15 0.15 67 1012.1
20260507235028 14 233 6.4 12.9 0.00 0.15 0.15 67 1012.0
20260507234540 14 246 4.8 11.3 0.00 0.15 0.15 67 1011.9
20260507234027 14 215 4.8 11.3 0.00 0.15 0.15 67 1012.1
20260507233526 14 210 3.2 11.3 0.00 0.15 0.15 67 1012.2
20260507233040 14 194 8.0 12.9 0.00 0.15 0.15 66 1012.1
20260507232526 14 221 6.4 12.9 0.00 0.15 0.15 66 1012.2
20260507232025 15 227 8.0 12.9 0.00 0.15 0.15 64 1012.1
20260507231545 15 214 8.0 16.1 0.00 0.15 0.15 65 1012.0
20260507231026 15 213 8.0 16.1 0.00 0.15 0.15 64 1012.2
20260507230527 15 220 6.4 14.5 0.00 0.15 0.15 62 1012.2
20260507230040 15 283 3.2 14.5 0.00 0.15 0.15 63 1012.2
20260507225527 14 243 3.2 8.0 0.00 0.15 0.15 67 1012.2